Location: Observatoire de l'Aigle
(47.0607°N, 71.3152°W)
Time: 08:14:51
(UTC-04:00)

Amateur Radio Satellites - All Passes

Search period start: 26 July 2016 07:44
Search period end: 27 July 2016 07:44
Location: Observatoire de l'Aigle, 47.0607°N, 71.3152°W

Satellite Date Start Highest point End Downlink Frequencies (MHz)
Time Altitude Azimuth
AO-7 26 Jul 07:45:53 07:50:24 16° 322° (NW) 07:54:53 29.400- 29.500
YUBILEINY 26 Jul 07:46:34 07:47:44 10° 67° (ENE) 07:48:54 435.215
SO-50 26 Jul 07:47:15 07:50:50 21° 112° (ESE) 07:54:24 436.795
LilacSat-2 26 Jul 07:58:49 08:02:11 29° 292° (WNW) 08:05:32 437.200
PRISM 26 Jul 07:59:41 08:03:33 43° 70° (ENE) 08:07:25 437.425
Cosmos 2491 26 Jul 08:01:28 08:09:42 43° 69° (ENE) 08:17:53 435.465 / 435.565
SEEDS 26 Jul 08:04:49 08:07:39 17° 91° (E) 08:10:27 437.485
RS-15 26 Jul 08:10:15 08:21:52 84° 308° (NW) 08:34:10 29.354- 29.394
Cubesat XI-IV 26 Jul 08:15:10 08:20:02 36° 295° (WNW) 08:24:52 437.490
COMPASS 1 26 Jul 08:18:57 08:21:44 17° 91° (E) 08:24:31 437.405
DOVE 4 26 Jul 08:21:34 08:26:34 61° 287° (WNW) 08:31:45 437.250
CUBEBUG 2 26 Jul 08:22:08 08:25:06 16° 89° (E) 08:28:01 437.445
GOMX 1 26 Jul 08:22:45 08:27:07 32° 293° (WNW) 08:31:41 467.674
TIGRISAT 26 Jul 08:31:11 08:32:32 11° 55° (NE) 08:33:53 435.000
CUTE-I 26 Jul 08:39:42 08:43:55 24° 300° (WNW) 08:48:06 437.470
HO-68 26 Jul 08:40:59 08:48:06 57° 102° (ESE) 08:55:08 435.675
CINEMA 3 26 Jul 08:42:06 08:47:09 75° 102° (ESE) 08:52:10 145.822/145.860
CANX-2 26 Jul 08:44:22 08:48:36 72° 102° (ESE) 08:52:47 2200.000
UNISAT 6 26 Jul 08:45:29 08:48:16 16° 59° (ENE) 08:51:04 437.425
STRAND 1 26 Jul 08:47:08 08:49:36 13° 273° (W) 08:52:04 437.568
AAUSAT CUBESAT 2 26 Jul 08:47:55 08:51:29 27° 95° (E) 08:55:01 437.432
Oscar 11 26 Jul 08:50:41 08:52:44 13° 88° (E) 08:54:47 145.826/435.025
CUTE 1.7 + AOD 2 26 Jul 08:58:02 09:02:17 87° 99° (E) 09:06:30 437.475
NOAA 15 26 Jul 09:05:23 09:07:33 13° 307° (NW) 09:09:44 137.62
NOAA 18 26 Jul 09:06:06 09:09:41 18° 305° (NW) 09:13:15 137.9125
ANTELSAT 26 Jul 09:22:20 09:26:27 32° 66° (ENE) 09:30:37 437.575/2403.000
DELFI C3 26 Jul 09:22:24 09:23:39 11° 88° (E) 09:24:54 145.870
SO-50 26 Jul 09:26:03 09:30:54 65° 310° (NW) 09:35:43 436.795
YUBILEINY 26 Jul 09:33:53 09:42:18 54° 90° (E) 09:50:49 435.215
PRISM 26 Jul 09:36:13 09:39:05 18° 267° (W) 09:41:57 437.425
UWE-3 26 Jul 09:37:49 09:42:26 59° 100° (E) 09:46:54 435.000/436.395/437.385
SEEDS 26 Jul 09:39:36 09:43:37 47° 289° (WNW) 09:47:37 437.485
FUNcube-1 26 Jul 09:40:57 09:45:13 39° 97° (E) 09:49:21 145.935
ZACube-1 26 Jul 09:41:11 09:45:31 42° 98° (E) 09:49:44 437.345
COMPASS 1 26 Jul 09:53:35 09:57:34 47° 289° (WNW) 10:01:31 437.405
CUBEBUG 2 26 Jul 09:57:27 10:02:11 64° 287° (WNW) 10:06:47 437.445
Cosmos 2491 26 Jul 09:58:24 10:06:41 50° 272° (W) 10:15:00 435.465 / 435.565
DOVE 4 26 Jul 10:02:33 10:03:20 10° 306° (NW) 10:04:07 437.250
TIGRISAT 26 Jul 10:03:45 10:08:22 74° 73° (ENE) 10:13:05 435.000
Cosmos 2504 26 Jul 10:05:43 10:13:12 32° 82° (E) 10:20:37 435.465 / 435.565
NANOSAT C BR1 26 Jul 10:10:47 10:13:29 17° 61° (ENE) 10:16:12 145.865
DUCHIFAT 1 26 Jul 10:15:31 10:18:18 17° 62° (ENE) 10:21:07 145.980
JAS-2 26 Jul 10:16:34 10:18:02 11° 53° (NE) 10:19:28 435.910
UNISAT 6 26 Jul 10:19:45 10:24:22 75° 256° (WSW) 10:29:07 437.425
CINEMA 3 26 Jul 10:20:26 10:23:42 18° 300° (WNW) 10:27:00 145.822/145.860
CANX-2 26 Jul 10:21:46 10:23:55 14° 300° (WNW) 10:26:03 2200.000
AAUSAT CUBESAT 2 26 Jul 10:23:22 10:26:57 29° 293° (WNW) 10:30:31 437.432
M-CUBED/EXP-1 PRIME 26 Jul 10:23:23 10:27:39 34° 102° (ESE) 10:31:55 437.505
Oscar 11 26 Jul 10:25:03 10:29:21 69° 286° (WNW) 10:33:38 145.826/435.025
RS-15 26 Jul 10:25:22 10:36:19 40° 337° (NNW) 10:47:42 29.354- 29.394
HO-68 26 Jul 10:29:10 10:35:30 35° 302° (WNW) 10:41:48 435.675
QB50P1 26 Jul 10:31:29 10:35:03 27° 66° (ENE) 10:38:39 145.935-145.965
BUGSAT 1 26 Jul 10:35:45 10:37:39 13° 59° (ENE) 10:39:35 437.445
CUTE 1.7 + AOD 2 26 Jul 10:36:01 10:37:28 12° 302° (WNW) 10:38:56 437.475
POPSAT HIP 1 26 Jul 10:37:38 10:41:21 30° 67° (ENE) 10:45:06 437.405
AUBIESAT-1 26 Jul 10:50:21 10:54:52 50° 105° (ESE) 10:59:23 437.475
DELFI C3 26 Jul 10:55:03 10:58:58 68° 286° (WNW) 11:02:52 145.870
QB50P2 26 Jul 10:57:48 11:01:55 51° 71° (ENE) 11:06:05 145.880/145.840
ANTELSAT 26 Jul 10:58:58 11:03:07 32° 265° (W) 11:07:21 437.575/2403.000
POLYITAN 1 26 Jul 11:00:25 11:04:33 52° 72° (ENE) 11:08:45 437.675
HUMSAT D 26 Jul 11:05:31 11:09:45 74° 101° (E) 11:13:54 437.325/437.525
SO-50 26 Jul 11:09:03 11:12:18 17° 332° (NNW) 11:15:31 436.795
UWE-3 26 Jul 11:15:13 11:18:26 19° 299° (WNW) 11:21:35 435.000/436.395/437.385
FUNcube-1 26 Jul 11:17:34 11:21:15 25° 296° (WNW) 11:24:51 145.935
ZACube-1 26 Jul 11:17:56 11:21:33 24° 296° (WNW) 11:25:05 437.345
ESTCUBE 1 26 Jul 11:25:05 11:28:38 22° 93° (E) 11:32:10 437.505/2401.250
YUBILEINY 26 Jul 11:31:17 11:39:24 40° 292° (WNW) 11:47:37 435.215
TIGRISAT 26 Jul 11:43:10 11:45:36 14° 272° (W) 11:48:03 435.000
NANOSAT C BR1 26 Jul 11:44:37 11:48:47 58° 259° (W) 11:53:00 145.865
VELOX 1 26 Jul 11:46:23 11:49:50 22° 93° (E) 11:53:15 145.980
DUCHIFAT 1 26 Jul 11:49:27 11:53:36 55° 260° (W) 11:57:48 145.980
CUBEBUG 1 26 Jul 11:50:10 11:53:56 27° 95° (E) 11:57:41 437.445
SPROUT 26 Jul 11:51:06 11:52:41 12° 88° (E) 11:54:17 437.525
JAS-2 26 Jul 11:56:20 12:02:14 63° 71° (ENE) 12:07:35 435.910
Cosmos 2504 26 Jul 11:57:08 12:05:58 68° 283° (WNW) 12:14:47 435.465 / 435.565
M-CUBED/EXP-1 PRIME 26 Jul 11:57:54 12:02:06 34° 299° (WNW) 12:06:21 437.505
Oscar 19 26 Jul 12:01:51 12:05:45 22° 60° (ENE) 12:09:39 437.125/150
QB50P1 26 Jul 12:06:53 12:10:43 33° 264° (W) 12:14:36 145.935-145.965
BUGSAT 1 26 Jul 12:08:22 12:12:27 75° 257° (WSW) 12:16:38 437.445
POPSAT HIP 1 26 Jul 12:13:24 12:17:06 29° 265° (W) 12:20:52 437.405
AUBIESAT-1 26 Jul 12:25:21 12:29:01 24° 302° (WNW) 12:32:43 437.475
AIST 1 26 Jul 12:28:10 12:30:09 13° 83° (E) 12:32:08
AISAT 26 Jul 12:30:26 12:34:52 62° 101° (E) 12:39:18 437.250
DX 1 26 Jul 12:33:55 12:38:09 46° 100° (E) 12:42:22 434.975-435.025
50 SAT 26 Jul 12:34:32 12:38:10 74° 102° (ESE) 12:41:44 437.505
QB50P2 26 Jul 12:35:12 12:38:02 17° 269° (W) 12:40:53 145.880/145.840
POLYITAN 1 26 Jul 12:37:53 12:40:40 17° 269° (W) 12:43:30 437.675
RS-15 26 Jul 12:42:08 12:53:01 35° 12° (NNE) 13:04:03 29.354- 29.394
HUMSAT D 26 Jul 12:42:45 12:44:47 13° 301° (WNW) 12:46:49 437.325/437.525
UKube-1 26 Jul 12:49:31 12:53:47 54° 101° (E) 12:58:01 .
TISAT 1 26 Jul 12:50:13 12:51:55 12° 88° (E) 12:53:36 437.305
ESTCUBE 1 26 Jul 13:01:23 13:05:37 42° 291° (WNW) 13:09:50 437.505/2401.250
AO-7 26 Jul 13:11:37 13:17:26 21° 44° (NE) 13:23:15 29.400- 29.500
Gurwin Techsat 1B 26 Jul 13:12:40 13:17:38 42° 67° (ENE) 13:22:38 435.225
AO-85 26 Jul 13:21:30 13:25:28 21° 112° (ESE) 13:29:19 145.980
VELOX 1 26 Jul 13:22:16 13:26:29 43° 290° (WNW) 13:30:42 145.980
SPROUT 26 Jul 13:24:50 13:29:11 77° 286° (WNW) 13:33:29 437.525
CUBEBUG 1 26 Jul 13:26:17 13:30:16 34° 292° (WNW) 13:34:14 437.445
ITAMSAT 1 26 Jul 13:33:40 13:37:51 25° 61° (ENE) 13:42:02 435.822/435.867
Oscar 19 26 Jul 13:39:39 13:44:41 57° 259° (W) 13:49:46 437.125/150
JAS-2 26 Jul 13:43:19 13:47:43 21° 268° (W) 13:51:50 435.910
GONETS M04 26 Jul 13:46:30 13:51:07 16° 72° (ENE) 13:55:45
CUSAT 1 26 Jul 13:51:57 13:53:34 14° 72° (ENE) 13:55:20 437.405
Cosmos 2504 26 Jul 13:55:40 14:01:14 18° 306° (NW) 14:06:47 435.465 / 435.565
SWISSCUBE 26 Jul 13:57:38 14:00:16 15° 89° (E) 14:02:53 437.505
AIST 1 26 Jul 14:02:59 14:07:11 62° 281° (W) 14:11:26
AISAT 26 Jul 14:08:01 14:10:54 17° 299° (WNW) 14:13:47 437.250
50 SAT 26 Jul 14:10:43 14:11:15 10° 300° (WNW) 14:11:46 437.505
DX 1 26 Jul 14:10:46 14:14:03 21° 297° (WNW) 14:17:20 434.975-435.025
BEESAT 26 Jul 14:18:23 14:22:00 21° 92° (E) 14:25:34 436.000
TISAT 1 26 Jul 14:23:48 14:28:04 73° 286° (WNW) 14:32:18 437.305
UKube-1 26 Jul 14:26:29 14:29:27 18° 299° (WNW) 14:32:26 .
SO-50 26 Jul 14:35:01 14:37:25 14° 22° (NNE) 14:39:47 436.795
ITUPSAT 1 26 Jul 14:40:24 14:44:42 32° 96° (E) 14:48:58 437.325
Gurwin Techsat 1B 26 Jul 14:53:04 14:57:42 30° 265° (W) 15:02:23 435.225
RS-15 26 Jul 14:56:16 15:08:32 63° 43° (NE) 15:20:44 29.354- 29.394
AO-85 26 Jul 15:00:13 15:05:33 71° 309° (NW) 15:10:38 145.980
Cosmos 2499 26 Jul 15:00:25 15:08:09 35° 84° (E) 15:15:42 435.465 / 435.565
AO-7 26 Jul 15:00:34 15:08:53 73° 66° (ENE) 15:17:14 29.400- 29.500
SPROUT 26 Jul 15:03:58 15:04:21 10° 304° (WNW) 15:04:44 437.525
HORYU 2 26 Jul 15:07:40 15:08:51 11° 55° (NE) 15:10:03 437.375
ITAMSAT 1 26 Jul 15:11:53 15:17:00 53° 260° (W) 15:22:08 435.822/435.867
CUSAT 1 26 Jul 15:33:08 15:35:33 24° 263° (W) 15:38:18 437.405
SWISSCUBE 26 Jul 15:33:50 15:38:36 72° 287° (WNW) 15:43:19 437.505
GONETS M04 26 Jul 15:37:40 15:46:17 73° 94° (E) 15:54:58
DANDE 26 Jul 15:47:37 15:50:10 54° 260° (W) 15:52:50 436.750
BEESAT 26 Jul 15:55:27 16:00:04 50° 290° (WNW) 16:04:39 436.000
SO-50 26 Jul 16:14:37 16:19:07 43° 44° (NE) 16:23:28 436.795
KKS-1 26 Jul 16:15:26 16:19:38 37° 98° (E) 16:23:47 437.445
ITUPSAT 1 26 Jul 16:18:16 16:22:31 33° 294° (WNW) 16:26:45 437.325
Cubesat XI-IV 26 Jul 16:23:24 16:26:03 14° 54° (NE) 16:28:43 437.490
HORYU 2 26 Jul 16:40:09 16:44:37 77° 74° (ENE) 16:49:09 437.375
AO-85 26 Jul 16:43:10 16:46:52 19° 329° (NNW) 16:50:25 145.980
MOZHAYETS 4 26 Jul 16:43:33 16:48:10 77° 102° (ESE) 16:52:43
CUTE-I 26 Jul 16:45:48 16:49:41 21° 59° (ENE) 16:53:36 437.470
BRITE-PL 26 Jul 16:50:50 16:54:09 23° 65° (ENE) 16:57:30 437.365/2234.400
Cosmos 2499 26 Jul 16:52:04 17:00:51 61° 284° (WNW) 17:09:24 435.465 / 435.565
AO-7 26 Jul 16:55:20 17:02:20 29° 267° (W) 17:09:24 29.400- 29.500
STARS 26 Jul 16:56:19 17:00:39 49° 100° (E) 17:04:58 437.465
NOAA 15 26 Jul 17:07:29 17:12:16 37° 66° (ENE) 17:17:05 137.62
RS-15 26 Jul 17:09:16 17:20:55 51° 248° (WSW) 17:32:25 29.354- 29.394
LilacSat-2 26 Jul 17:09:48 17:12:43 21° 65° (ENE) 17:15:38 437.200
NOAA 18 26 Jul 17:13:47 17:18:45 35° 64° (ENE) 17:23:46 137.9125
SWISSCUBE 26 Jul 17:14:11 17:15:33 11° 306° (NW) 17:16:54 437.505
HO-68 26 Jul 17:29:27 17:33:06 15° 44° (NE) 17:36:45 435.675
GONETS M04 26 Jul 17:36:39 17:43:58 29° 297° (WNW) 17:51:22
KKS-1 26 Jul 17:52:17 17:56:03 27° 295° (WNW) 17:59:48 437.445
DOVE 4 26 Jul 17:53:41 17:57:09 24° 63° (ENE) 18:00:46 437.250
SO-50 26 Jul 17:55:26 17:59:26 29° 244° (WSW) 18:03:20 436.795
GOMX 1 26 Jul 17:56:09 18:00:10 48° 71° (ENE) 18:04:23 467.674
Cubesat XI-IV 26 Jul 17:59:53 18:05:16 77° 73° (ENE) 18:10:40 437.490
CUBESAT XI-V 26 Jul 18:00:43 18:05:18 62° 101° (E) 18:09:52 437.345
PHONESAT 2.4 26 Jul 18:07:00 18:08:58 16° 163° (SSE) 18:10:57 2401.200-2431.200
CINEMA 3 26 Jul 18:12:23 18:14:36 13° 56° (ENE) 18:16:50 145.822/145.860
HORYU 2 26 Jul 18:19:47 18:21:44 13° 272° (W) 18:23:41 437.375
CUTE 1.7 + AOD 2 26 Jul 18:20:57 18:22:17 11° 58° (ENE) 18:23:37 437.475
MOZHAYETS 4 26 Jul 18:22:13 18:24:44 15° 301° (WNW) 18:27:15
CUTE-I 26 Jul 18:23:52 18:29:13 69° 257° (WSW) 18:34:37 437.470
BRITE-PL 26 Jul 18:28:45 18:32:32 34° 264° (W) 18:36:22 437.365/2234.400
STARS 26 Jul 18:33:24 18:36:41 21° 298° (WNW) 18:39:59 437.465
LilacSat-2 26 Jul 18:43:11 18:46:48 37° 263° (W) 18:50:27 437.200
NOAA 15 26 Jul 18:47:23 18:52:05 33° 264° (W) 18:56:49 137.62
Cosmos 2499 26 Jul 18:51:03 18:55:58 16° 308° (NW) 19:00:49 435.465 / 435.565
NOAA 18 26 Jul 18:54:12 18:59:22 39° 262° (W) 19:04:34 137.9125
SEEDS 26 Jul 18:59:31 19:02:32 19° 63° (ENE) 19:05:33 437.485
UWE-3 26 Jul 19:05:51 19:06:07 10° 55° (NE) 19:06:23 435.000/436.395/437.385
BEESAT 3 26 Jul 19:09:39 19:13:33 71° 125° (SE) 19:17:30 437.485
HO-68 26 Jul 19:12:23 19:19:22 58° 66° (ENE) 19:26:25 435.675
STRAND 1 26 Jul 19:12:38 19:16:43 23° 93° (E) 19:20:45 437.568
COMPASS 1 26 Jul 19:12:43 19:15:39 19° 63° (ENE) 19:18:35 437.405
BEESAT 2 26 Jul 19:14:31 19:18:17 43° 120° (ESE) 19:22:04 435.950
CUBEBUG 2 26 Jul 19:22:55 19:26:17 20° 62° (ENE) 19:29:44 437.445
RS-15 26 Jul 19:28:15 19:30:06 10° 271° (W) 19:31:58 29.354- 29.394
DOVE 4 26 Jul 19:30:36 19:34:38 40° 263° (W) 19:38:55 437.250
GOMX 1 26 Jul 19:35:52 19:38:39 17° 270° (W) 19:41:30 467.674
CUBESAT XI-V 26 Jul 19:39:10 19:42:13 18° 299° (WNW) 19:45:17 437.345
CANX-2 26 Jul 19:39:36 19:43:53 74° 74° (ENE) 19:48:09 2200.000
YUBILEINY 26 Jul 19:40:11 19:47:54 32° 64° (ENE) 19:55:33 435.215
AAUSAT CUBESAT 2 26 Jul 19:40:59 19:44:32 28° 67° (ENE) 19:48:06 437.432
PHONESAT 2.4 26 Jul 19:42:21 19:44:55 24° 179° (S) 19:47:29 2401.200-2431.200
Cubesat XI-IV 26 Jul 19:42:37 19:45:56 16° 271° (W) 19:49:17 437.490
PCSat 26 Jul 19:43:54 19:49:14 61° 118° (ESE) 19:54:36 145.827
CINEMA 3 26 Jul 19:46:25 19:50:57 90° 239° (WSW) 19:55:45 145.822/145.860
Oscar 11 26 Jul 19:48:15 19:50:58 16° 61° (ENE) 19:53:41 145.826/435.025
CUTE 1.7 + AOD 2 26 Jul 19:53:10 19:57:27 88° 81° (E) 20:01:45 437.475
Cosmos 2504 26 Jul 19:55:31 19:59:25 14° 49° (NE) 20:03:12 435.465 / 435.565
AUBIESAT-1 26 Jul 20:07:29 20:09:18 13° 51° (NE) 20:11:08 437.475
AO-85 26 Jul 20:10:04 20:11:59 12° 19° (NNE) 20:13:51 145.980
DELFI C3 26 Jul 20:11:44 20:13:05 11° 59° (ENE) 20:14:26 145.870
O/OREOS (USA 219) 26 Jul 20:13:25 20:16:58 24° 103° (ESE) 20:20:32 437.305
SEEDS 26 Jul 20:33:50 20:37:56 47° 261° (W) 20:42:01 437.485
UWE-3 26 Jul 20:37:07 20:41:40 68° 73° (ENE) 20:46:19 435.000/436.395/437.385
FUNcube-1 26 Jul 20:38:50 20:43:09 45° 70° (ENE) 20:47:32 145.935
ZACube-1 26 Jul 20:39:20 20:43:43 48° 71° (ENE) 20:48:09 437.345
COMPASS 1 26 Jul 20:46:51 20:50:54 48° 261° (W) 20:54:58 437.405
BEESAT 3 26 Jul 20:48:48 20:51:40 19° 324° (NW) 20:54:33 437.485
STRAND 1 26 Jul 20:51:13 20:56:10 50° 291° (WNW) 21:01:05 437.568
BEESAT 2 26 Jul 20:52:54 20:56:16 26° 320° (NW) 20:59:40 435.950
CUBEBUG 2 26 Jul 20:58:00 21:02:30 55° 261° (W) 21:07:10 437.445
HO-68 26 Jul 21:01:09 21:07:27 32° 266° (W) 21:13:48 435.675
Cosmos 2491 26 Jul 21:06:44 21:14:44 43° 86° (E) 21:22:45 435.465 / 435.565
AIST 2 26 Jul 21:09:50 21:13:36 36° 119° (ESE) 21:17:24 435.215
M-CUBED/EXP-1 PRIME 26 Jul 21:12:38 21:16:23 60° 67° (ENE) 21:20:30 437.505
PRISM 26 Jul 21:13:07 21:17:04 45° 100° (E) 21:21:01 437.425
AAUSAT CUBESAT 2 26 Jul 21:16:18 21:19:58 29° 264° (W) 21:23:38 437.432
CANX-2 26 Jul 21:18:33 21:20:15 12° 272° (W) 21:21:57 2200.000
PHONESAT 2.4 26 Jul 21:18:50 21:20:53 16° 196° (SSW) 21:22:56 2401.200-2431.200
Oscar 11 26 Jul 21:22:20 21:26:39 62° 259° (W) 21:30:59 145.826/435.025
CINEMA 3 26 Jul 21:27:40 21:28:52 11° 275° (W) 21:30:05 145.822/145.860
PCSat 26 Jul 21:28:20 21:33:01 29° 319° (NW) 21:37:44 145.827
ISS 26 Jul 21:32:20 21:35:02 24° 140° (SE) 21:37:43 145.825
YUBILEINY 26 Jul 21:36:41 21:45:27 68° 267° (W) 21:54:08 435.215
AUBIESAT-1 26 Jul 21:39:12 21:43:03 85° 251° (WSW) 21:47:15 437.475
DELFI C3 26 Jul 21:43:22 21:47:22 79° 257° (WSW) 21:51:21 145.870
Cosmos 2504 26 Jul 21:46:54 21:55:05 58° 74° (ENE) 22:02:38 435.465 / 435.565
AO-85 26 Jul 21:49:33 21:53:50 37° 43° (NE) 21:57:45 145.980
O/OREOS (USA 219) 26 Jul 21:51:54 21:56:08 41° 302° (WNW) 22:00:24 437.305
TIGRISAT 26 Jul 21:54:08 21:56:18 13° 87° (E) 21:58:28 435.000
AISAT 26 Jul 21:58:06 21:59:08 11° 56° (NE) 22:00:11 437.250
HUMSAT D 26 Jul 21:59:06 22:03:24 75° 74° (ENE) 22:07:43 437.325/437.525
UNISAT 6 26 Jul 22:09:21 22:12:45 20° 91° (E) 22:16:05 437.425
UWE-3 26 Jul 22:15:56 22:18:36 15° 272° (W) 22:21:19 435.000/436.395/437.385
FUNcube-1 26 Jul 22:16:04 22:19:36 22° 268° (W) 22:23:10 145.935
ZACube-1 26 Jul 22:16:51 22:20:15 21° 269° (W) 22:23:42 437.345
ESTCUBE 1 26 Jul 22:27:21 22:31:16 30° 66° (ENE) 22:35:11 437.505/2401.250
VELOX 1 26 Jul 22:46:29 22:50:13 28° 66° (ENE) 22:53:59 145.980
ANTELSAT 26 Jul 22:47:08 22:51:37 44° 98° (E) 22:55:58 437.575/2403.000
SPROUT 26 Jul 22:47:27 22:49:48 15° 60° (ENE) 22:52:11 437.525
AIST 2 26 Jul 22:48:26 22:52:08 31° 318° (NW) 22:55:52 435.215
CUBEBUG 1 26 Jul 22:48:58 22:52:48 32° 67° (ENE) 22:56:40 437.445
PRISM 26 Jul 22:49:11 22:52:05 19° 297° (WNW) 22:54:59 437.425
M-CUBED/EXP-1 PRIME 26 Jul 22:49:30 22:51:26 13° 267° (W) 22:53:26 437.505
Cosmos 2491 26 Jul 23:03:07 23:11:28 49° 288° (WNW) 23:19:53 435.465 / 435.565
ISS 26 Jul 23:07:59 23:11:14 68° 338° (NNW) 23:14:29 145.825
50 SAT 26 Jul 23:14:40 23:18:14 50° 72° (ENE) 23:21:48 437.505
PCSat 26 Jul 23:17:07 23:18:20 11° 343° (NNW) 23:19:35 145.827
NANOSAT C BR1 26 Jul 23:26:45 23:29:44 18° 91° (E) 23:32:43 145.865
TIGRISAT 26 Jul 23:28:54 23:33:35 77° 286° (WNW) 23:38:08 435.000
AO-85 26 Jul 23:30:18 23:34:11 30° 244° (WSW) 23:37:47 145.980
AISAT 26 Jul 23:30:28 23:34:51 79° 73° (ENE) 23:39:17 437.250
DUCHIFAT 1 26 Jul 23:31:13 23:34:18 19° 92° (E) 23:37:21 145.980
DX 1 26 Jul 23:32:04 23:36:19 59° 72° (ENE) 23:40:36 434.975-435.025
YUBILEINY 26 Jul 23:36:10 23:40:27 15° 289° (WNW) 23:44:43 435.215
HUMSAT D 26 Jul 23:37:49 23:39:33 12° 272° (W) 23:41:17 437.325/437.525
Cosmos 2504 26 Jul 23:40:56 23:47:59 33° 277° (W) 23:54:38 435.465 / 435.565
TISAT 1 26 Jul 23:44:43 23:47:03 15° 60° (ENE) 23:49:25 437.305
UNISAT 6 26 Jul 23:45:14 23:49:46 51° 289° (WNW) 23:54:12 437.425
UKube-1 26 Jul 23:46:39 23:50:55 67° 73° (ENE) 23:55:13 .
QB50P1 26 Jul 23:48:15 23:52:06 31° 96° (E) 23:55:56 145.935-145.965
BUGSAT 1 26 Jul 23:48:36 23:50:44 13° 89° (E) 23:52:50 437.445
GONETS M04 26 Jul 23:52:06 23:52:32 10° 43° (NE) 23:52:58
POPSAT HIP 1 26 Jul 23:54:34 23:58:33 36° 97° (E) 00:02:30 437.405
ESTCUBE 1 27 Jul 00:04:01 00:08:02 32° 264° (W) 00:12:04 437.505/2401.250
AIST 1 27 Jul 00:06:40 00:10:49 42° 76° (ENE) 00:14:57
QB50P2 27 Jul 00:15:13 00:19:30 63° 102° (ESE) 00:23:45 145.880/145.840
POLYITAN 1 27 Jul 00:17:51 00:22:09 65° 101° (ESE) 00:26:24 437.675
SPROUT 27 Jul 00:20:58 00:25:14 69° 258° (WSW) 00:29:33 437.525
VELOX 1 27 Jul 00:22:38 00:26:36 33° 263° (W) 00:30:36 145.980
ANTELSAT 27 Jul 00:24:21 00:28:04 24° 297° (WNW) 00:31:43 437.575/2403.000
CUBEBUG 1 27 Jul 00:25:25 00:29:07 27° 265° (W) 00:32:50 437.445
ISS 27 Jul 00:44:58 00:48:00 35° 358° (N) 00:51:02 145.825
JAS-2 27 Jul 00:46:20 00:51:15 38° 98° (E) 00:56:28 435.910
Cosmos 2499 27 Jul 00:49:10 00:53:08 14° 50° (NE) 00:56:56 435.465 / 435.565
50 SAT 27 Jul 00:50:23 00:52:10 13° 269° (W) 00:53:56 437.505
NANOSAT C BR1 27 Jul 01:01:36 01:05:44 48° 289° (WNW) 01:09:51 145.865
DUCHIFAT 1 27 Jul 01:06:07 01:10:14 46° 290° (WNW) 01:14:18 145.980
SWISSCUBE 27 Jul 01:06:29 01:10:22 25° 63° (ENE) 01:14:15 437.505
TIGRISAT 27 Jul 01:07:57 01:09:27 11° 304° (NW) 01:10:55 435.000
Cosmos 2491 27 Jul 01:08:15 01:11:03 12° 315° (NW) 01:13:51 435.465 / 435.565
AISAT 27 Jul 01:10:20 01:11:54 12° 272° (W) 01:13:29 437.250
DX 1 27 Jul 01:10:21 01:12:54 15° 270° (W) 01:15:30 434.975-435.025
TISAT 1 27 Jul 01:18:02 01:22:12 67° 257° (WSW) 01:26:26 437.305
BUGSAT 1 27 Jul 01:22:18 01:26:32 66° 286° (WNW) 01:30:46 437.445
QB50P1 27 Jul 01:24:07 01:27:49 28° 294° (WNW) 01:31:29 145.935-145.965
UKube-1 27 Jul 01:25:17 01:27:26 13° 271° (W) 01:29:34 .
BEESAT 27 Jul 01:27:22 01:31:41 34° 66° (ENE) 01:36:00 436.000
Gurwin Techsat 1B 27 Jul 01:27:32 01:29:45 12° 86° (E) 01:31:58 435.225
POPSAT HIP 1 27 Jul 01:30:39 01:34:12 25° 295° (WNW) 01:37:42 437.405
GONETS M04 27 Jul 01:44:07 01:52:25 43° 70° (ENE) 02:00:42
AIST 1 27 Jul 01:44:58 01:48:07 20° 273° (W) 01:51:16
BEESAT 3 27 Jul 01:47:10 01:50:02 19° 36° (NE) 01:52:53 437.485
Oscar 19 27 Jul 01:48:01 01:52:52 39° 98° (E) 01:57:43 437.125/150
ITUPSAT 1 27 Jul 01:49:47 01:54:27 53° 70° (ENE) 01:59:09 437.325
QB50P2 27 Jul 01:52:14 01:54:50 16° 300° (WNW) 01:57:25 145.880/145.840
BEESAT 2 27 Jul 01:52:46 01:55:03 15° 31° (NNE) 01:57:21 435.950
POLYITAN 1 27 Jul 01:54:54 01:57:28 16° 300° (WNW) 02:00:01 437.675
MOZHAYETS 4 27 Jul 02:13:37 02:16:06 14° 59° (ENE) 02:18:36
ISS 27 Jul 02:21:37 02:24:50 54° 18° (NNE) 02:28:02 145.825
JAS-2 27 Jul 02:31:43 02:36:20 32° 295° (WNW) 02:41:10 435.910
Cosmos 2499 27 Jul 02:40:23 02:48:20 62° 76° (ENE) 02:55:37 435.465 / 435.565
SWISSCUBE 27 Jul 02:43:21 02:47:55 44° 261° (W) 02:52:32 437.505
PCSat 27 Jul 02:45:55 02:50:08 22° 36° (NE) 02:54:20 145.827
CUSAT 1 27 Jul 02:59:07 03:01:18 15° 94° (E) 03:03:15 437.405
AO-7 27 Jul 03:00:17 03:05:41 18° 87° (E) 03:11:03 29.400- 29.500
Gurwin Techsat 1B 27 Jul 03:05:08 03:10:30 86° 105° (ESE) 03:15:50 435.225
BEESAT 27 Jul 03:05:13 03:09:28 31° 264° (W) 03:13:45 436.000
KKS-1 27 Jul 03:16:08 03:20:25 49° 70° (ENE) 03:24:44 437.445
DANDE 27 Jul 03:18:29 03:20:52 13° 91° (E) 03:23:01 436.750
ITAMSAT 1 27 Jul 03:21:33 03:26:31 43° 98° (E) 03:31:25 435.822/435.867
BEESAT 3 27 Jul 03:24:11 03:28:09 73° 237° (WSW) 03:32:06 437.485
Oscar 19 27 Jul 03:27:33 03:32:05 31° 296° (WNW) 03:36:36 437.125/150
ITUPSAT 1 27 Jul 03:29:04 03:32:36 20° 268° (W) 03:36:09 437.325
BEESAT 2 27 Jul 03:29:35 03:33:36 72° 51° (NE) 03:37:35 435.950
CUBESAT XI-V 27 Jul 03:32:55 03:34:40 12° 57° (ENE) 03:36:25 437.345
GONETS M04 27 Jul 03:41:03 03:49:24 50° 271° (W) 03:57:45
MOZHAYETS 4 27 Jul 03:48:01 03:52:40 81° 257° (WSW) 03:57:20
AIST 2 27 Jul 03:50:34 03:52:53 14° 29° (NNE) 03:55:12 435.215
STARS 27 Jul 03:55:33 03:59:53 63° 73° (ENE) 04:04:17 437.465
ISS 27 Jul 03:58:11 04:01:10 33° 217° (SW) 04:04:09 145.825
PCSat 27 Jul 04:28:48 04:34:16 88° 238° (WSW) 04:39:41 145.827
HORYU 2 27 Jul 04:30:13 04:31:48 12° 88° (E) 04:33:23 437.375
Cosmos 2499 27 Jul 04:34:19 04:40:48 29° 279° (W) 04:46:55 435.465 / 435.565
CUSAT 1 27 Jul 04:39:38 04:43:12 32° 284° (WNW) 04:46:05 437.405
O/OREOS (USA 219) 27 Jul 04:41:23 04:43:34 13° 44° (NE) 04:45:46 437.305
Gurwin Techsat 1B 27 Jul 04:46:29 04:49:46 17° 304° (WNW) 04:53:02 435.225
AO-7 27 Jul 04:51:20 04:59:46 81° 108° (ESE) 05:08:06 29.400- 29.500
KKS-1 27 Jul 04:54:04 04:57:16 19° 268° (W) 05:00:29 437.445
DANDE 27 Jul 04:58:03 05:03:30 70° 281° (WNW) 05:07:32 436.750
ITAMSAT 1 27 Jul 05:01:22 05:05:49 30° 297° (WNW) 05:10:15 435.822/435.867
CUBESAT XI-V 27 Jul 05:06:41 05:11:19 84° 76° (ENE) 05:15:57 437.345
BEESAT 2 27 Jul 05:08:56 05:10:54 13° 250° (WSW) 05:12:51 435.950
RS-15 27 Jul 05:27:03 05:35:20 24° 99° (E) 05:43:53 29.354- 29.394
AIST 2 27 Jul 05:28:01 05:32:11 64° 50° (NE) 05:36:20 435.215
STARS 27 Jul 05:34:12 05:36:42 15° 270° (W) 05:39:12 437.465
NOAA 18 27 Jul 05:35:42 05:36:28 10° 85° (E) 05:37:13 137.9125
GOMX 1 27 Jul 05:55:10 05:57:50 14° 88° (E) 06:00:35 467.674
HORYU 2 27 Jul 06:04:26 06:08:57 82° 287° (WNW) 06:13:25 437.375
LilacSat-2 27 Jul 06:13:58 06:16:49 19° 92° (E) 06:19:38 437.200
PCSat 27 Jul 06:14:00 06:16:51 15° 256° (WSW) 06:19:42 145.827
Cubesat XI-IV 27 Jul 06:14:40 06:18:58 24° 92° (E) 06:23:15 437.490
O/OREOS (USA 219) 27 Jul 06:19:14 06:23:47 79° 65° (ENE) 06:28:20 437.305
BRITE-PL 27 Jul 06:28:29 06:33:10 53° 100° (E) 06:38:12 437.365/2234.400
STRAND 1 27 Jul 06:31:07 06:36:00 46° 68° (ENE) 06:40:56 437.568
CUTE-I 27 Jul 06:37:59 06:42:57 38° 97° (E) 06:47:52 437.470
AO-7 27 Jul 06:44:54 06:51:45 30° 309° (NW) 06:58:36 29.400- 29.500
CUBESAT XI-V 27 Jul 06:47:40 06:49:19 12° 273° (W) 06:50:59 437.345
NOAA 15 27 Jul 06:58:31 07:03:48 73° 104° (ESE) 07:09:04 137.62
AIST 2 27 Jul 07:07:35 07:10:13 16° 249° (WSW) 07:12:50 435.215
NOAA 18 27 Jul 07:12:33 07:18:07 70° 104° (ESE) 07:23:37 137.9125
Cosmos 2491 27 Jul 07:12:50 07:19:51 26° 60° (ENE) 07:26:51 435.465 / 435.565
CANX-2 27 Jul 07:24:43 07:25:07 10° 87° (E) 07:25:33 2200.000
DOVE 4 27 Jul 07:25:13 07:30:08 45° 98° (E) 07:35:11 437.250
GOMX 1 27 Jul 07:31:26 07:36:27 84° 286° (WNW) 07:41:46 467.674
CUTE 1.7 + AOD 2 27 Jul 07:36:54 07:38:42 12° 88° (E) 07:40:29 437.475
